Weather in Kholodnogorskiy

Russia / Stavropol Krai     44°57′25″N   42°06′04″E
temp.,
°C
wind,
m/s
gust,
m/s
humid.,
%
clouds,
%
prec.,
mm/h
press.,
hPa
HPBL,
m
28 september, tue
tue2800:00+10ene116565 0.0 101715
03:00+9e116999 0.0 101716
06:00+10ene1167100 0.0 101824
09:00+11ene226098 0.0 1018362
12:00+13ene225539 0.0 1018960
15:00+13s1156100 0.0 1019952
18:00+11ssw227625 0.0 102120
21:00+10s118144 0.0 102113
29 september, wed
wed2900:00+10e2275100 0.0 102136
03:00+10e227895 0.0 102265
06:00+9e2581100 0.0 1022154
09:00+12e5869100 0.0 1022759
12:00+14e7760100 0.1 10221397
15:00+12e6864100 0.1 10221161
18:00+10e6968100 0.0 1024934
21:00+9e6968100 0.0 1025823
30 september, thu
thu3000:00+8e7106198 0.0 1025724
03:00+7e7115986 0.0 1026585
06:00+6e6126130 0.0 1026488
09:00+8e8115770 0.0 1027713
12:00+11e8105152 0.0 10261079
15:00+11ese8104928 0.0 10261178
18:00+7ese6115847 0.0 1027500
21:00+7e6136215 0.0 1027626
1 october, fri
fri100:00+6e715575 0.0 1027604
03:00+5e71565100 0.0 1026644
06:00+7e91563100 0.0 1026846
09:00+7e91566100 0.0 1027908
12:00+8e91467100 0.0 10271083
15:00+8e81470100 0.0 10271057
18:00+8ese71383100 0.4 10281104
21:00+8e71384100 2.1 10281000
2 october, sat
sat200:00+7e81589100 0.0 1028894
03:00+7e71492100 0.0 1028825
06:00+7e71491100 0.0 1027835
09:00+7e81390100 0.0 1027801
12:00+9e81384100 0.0 1027879
15:00+10e9137286 0.0 1026978
18:00+10e91374100 0.0 1026976
21:00+10e9157374 0.0 1025805